{"data":{"norad_id":62468,"intl_designator":"2024-254G","name":"STARLINK-11511 [DTC]","alt_names":[],"object_type":"PAYLOAD","status":"ACTIVE","operator":null,"country":"US","launch_date":"2024-12-31","launch_site_code":"AFETR","launch_vehicle":null,"mission":null,"orbit_class":"UNKNOWN","rcs_meters":null,"size_class":null,"mass_kg":null,"dimensions":null,"purposes":["comms"],"wikipedia_slug":null,"has_3d_model":false,"image_url":null,"decayed_at":null,"tle_current":{"epoch":"2026-05-25T00:08:40.820064Z","epoch_age_seconds":74546,"freshness":"FRESH","line1":"1 62468U 24254G   26145.00602801  .00167438  00000+0  12788-2 0  9994","line2":"2 62468  42.9997 122.9852 0002213 267.7342  92.3272 15.70904026 81408","mean_motion":15.70904026,"eccentricity":0.0002213,"inclination_deg":42.9997,"raan_deg":122.9852,"arg_perigee_deg":267.7342,"mean_anomaly_deg":92.3272,"bstar":0.0012788,"rev_number":8140,"period_min":91.666962218353,"perigee_km":354.82173591429,"apogee_km":357.80240307245,"semimajor_km":6734.4490694934,"source":"CELESTRAK","updated_at":"2026-05-25T13:38:19.691698Z"}}}